QPF
0.04 0.05 0.09 0.07 0.04 0.04 0.06 0.08 0.08 0.06 0.05 0.05 0.04 0.03 0.04 0.06 0.06 0.08 0.10 0.08 0.08 0.07 0.06 0.07 0.07 0.07 0.07 0.06 0.06 0.06 0.05 0.05 0.06 0.04 0.03 0.06 0.07 0.05 0.04 0.04 0.07 0.09 0.12
0.03 0.05 0.08 0.07 0.05 0.05 0.06 0.06 0.06 0.05 0.03 0.04 0.03 0.02 0.03 0.03 0.04 0.06 0.09 0.08 0.05 0.05 0.05 0.05 0.05 0.06 0.06 0.05 0.04 0.06 0.05 0.05 0.04 0.05 0.05 0.05 0.07 0.06 0.04 0.03 0.04 0.06 0.08
0.02 0.04 0.05 0.07 0.06 0.04 0.04 0.04 0.04 0.03 0.03 0.04 0.03 0.02 0.03 0.03 0.04 0.05 0.08 0.10 0.06 0.05 0.05 0.05 0.04 0.05 0.06 0.07 0.06 0.06 0.06 0.06 0.05 0.04 0.04 0.04 0.06 0.08 0.06 0.05 0.07 0.08 0.07
0.01 0.02 0.03 0.06 0.05 0.03 0.02 0.02 0.02 0.03 0.02 0.03 0.03 0.03 0.03 0.05 0.04 0.03 0.05 0.08 0.06 0.05 0.05 0.06 0.06 0.06 0.07 0.07 0.05 0.05 0.05 0.05 0.05 0.03 0.01 0.01 0.03 0.08 0.09 0.07 0.07 0.07 0.06
0.01 0.02 0.03 0.05 0.06 0.04 0.02 0.02 0.03 0.03 0.02 0.02 0.03 0.04 0.03 0.04 0.04 0.04 0.04 0.06 0.06 0.05 0.05 0.05 0.06 0.06 0.06 0.05 0.05 0.06 0.06 0.06 0.04 0.02 0.01 0.01 0.02 0.06 0.07 0.06 0.06 0.06 0.06
0.01 0.01 0.02 0.04 0.06 0.06 0.05 0.05 0.05 0.05 0.04 0.03 0.03 0.04 0.03 0.03 0.04 0.05 0.05 0.05 0.07 0.09 0.07 0.05 0.05 0.05 0.07 0.05 0.06 0.07 0.07 0.05 0.02 0.01 0.01 0.01 0.04 0.07 0.06 0.06 0.07 0.07 0.06
0.01 0.01 0.02 0.03 0.04 0.04 0.04 0.05 0.05 0.04 0.03 0.03 0.02 0.03 0.03 0.02 0.03 0.04 0.05 0.05 0.06 0.09 0.08 0.07 0.06 0.06 0.07 0.06 0.05 0.06 0.06 0.04 0.01 0.01 0.01 0.01 0.04 0.07 0.06 0.05 0.06 0.06 0.04
0.01 0.01 0.01 0.03 0.05 0.04 0.03 0.04 0.04 0.03 0.02 0.01 0.01 0.01 0.02 0.03 0.02 0.02 0.03 0.03 0.03 0.03 0.03 0.04 0.06 0.06 0.05 0.05 0.05 0.07 0.07 0.04 0.01 0.01 0.01 0.02 0.04 0.08 0.05 0.04 0.07 0.07 0.06
0.00 0.01 0.01 0.01 0.03 0.04 0.03 0.04 0.04 0.04 0.03 0.02 0.01 0.02 0.02 0.03 0.03 0.02 0.02 0.02 0.02 0.03 0.03 0.04 0.05 0.05 0.05 0.06 0.06 0.08 0.06 0.04 0.03 0.02 0.02 0.03 0.06 0.07 0.08 0.07 0.07 0.05 0.04
0.01 0.01 0.00 0.00 0.00 0.01 0.02 0.03 0.03 0.04 0.04 0.03 0.02 0.03 0.03 0.02 0.01 0.01 0.02 0.02 0.02 0.03 0.05 0.05 0.04 0.03 0.04 0.06 0.06 0.08 0.07 0.04 0.03 0.02 0.02 0.04 0.07 0.06 0.07 0.08 0.07 0.04 0.05
0.01 0.01 0.00 0.00 0.00 0.00 0.00 0.01 0.02 0.02 0.03 0.03 0.02 0.03 0.01 0.00 0.00 0.00 0.02 0.02 0.03 0.04 0.06 0.06 0.03 0.02 0.02 0.03 0.04 0.05 0.03 0.02 0.01 0.01 0.02 0.05 0.07 0.06 0.05 0.05 0.04 0.03 0.03
0.01 0.01 0.00 0.00 0.00 0.00 0.00 0.00 0.00 0.01 0.01 0.01 0.01 0.01 0.01 0.00 0.00 0.00 0.01 0.02 0.02 0.03 0.03 0.04 0.02 0.01 0.01 0.00 0.01 0.02 0.03 0.02 0.01 0.02 0.03 0.05 0.09 0.09 0.06 0.04 0.03 0.03 0.03
0.00 0.00 0.00 0.00 0.00 0.00 0.00 0.00 0.00 0.00 0.00 0.01 0.02 0.01 0.00 0.00 0.00 0.00 0.00 0.01 0.01 0.02 0.01 0.01 0.01 0.00 0.00 0.00 0.00 0.01 0.02 0.02 0.02 0.02 0.03 0.06 0.09 0.11 0.09 0.06 0.05 0.05 0.07
0.00 0.00 0.00 0.00 0.00 0.00 0.00 0.00 0.00 0.01 0.01 0.01 0.01 0.00 0.00 0.00 0.00 0.00 0.00 0.01 0.00 0.01 0.01 0.01 0.01 0.00 0.00 0.00 0.00 0.01 0.02 0.02 0.02 0.01 0.02 0.05 0.08 0.11 0.10 0.08 0.05 0.05 0.06
0.00 0.00 0.00 0.00 0.00 0.00 0.01 0.00 0.00 0.01 0.01 0.01 0.00 0.00 0.00 0.00 0.01 0.01 0.01 0.00 0.00 0.00 0.01 0.01 0.01 0.00 0.00 0.00 0.00 0.00 0.01 0.01 0.01 0.01 0.02 0.04 0.07 0.12 0.11 0.10 0.08 0.06 0.05
0.00 0.01 0.01 0.01 0.00 0.00 0.01 0.00 0.00 0.01 0.00 0.00 0.00 0.00 0.00 0.00 0.00 0.01 0.00 0.00 0.00 0.00 0.00 0.01 0.01 0.01 0.00 0.00 0.01 0.00 0.01 0.01 0.00 0.00 0.01 0.02 0.03 0.06 0.08 0.10 0.11 0.08 0.07
0.00 0.00 0.02 0.01 0.01 0.00 0.01 0.01 0.01 0.01 0.00 0.00 0.00 0.00 0.00 0.00 0.00 0.00 0.00 0.00 0.00 0.00 0.00 0.00 0.01 0.01 0.01 0.01 0.01 0.00 0.00 0.00 0.00 0.00 0.00 0.00 0.01 0.02 0.05 0.06 0.07 0.08 0.07
0.00 0.00 0.01 0.01 0.01 0.01 0.01 0.01 0.01 0.01 0.01 0.01 0.01 0.01 0.01 0.00 0.00 0.00 0.00 0.01 0.01 0.00 0.00 0.01 0.01 0.02 0.02 0.01 0.01 0.00 0.00 0.01 0.00 0.00 0.00 0.00 0.01 0.01 0.01 0.04 0.06 0.08 0.08
0.01 0.01 0.01 0.01 0.01 0.01 0.01 0.01 0.01 0.02 0.02 0.03 0.01 0.01 0.01 0.01 0.01 0.01 0.00 0.01 0.01 0.01 0.02 0.02 0.03 0.02 0.01 0.01 0.01 0.01 0.01 0.01 0.01 0.01 0.00 0.00 0.01 0.01 0.01 0.02 0.04 0.08 0.09
0.02 0.02 0.02 0.01 0.01 0.02 0.01 0.01 0.01 0.01 0.02 0.03 0.02 0.01 0.01 0.01 0.01 0.00 0.01 0.01 0.01 0.02 0.02 0.03 0.03 0.02 0.01 0.01 0.01 0.01 0.01 0.01 0.01 0.01 0.01 0.00 0.01 0.02 0.01 0.01 0.02 0.04 0.06
0.04 0.03 0.02 0.02 0.01 0.01 0.01 0.01 0.01 0.01 0.01 0.02 0.02 0.01 0.01 0.01 0.01 0.01 0.01 0.01 0.02 0.02 0.01 0.01 0.02 0.02 0.01 0.01 0.01 0.01 0.01 0.01 0.01 0.01 0.01 0.01 0.01 0.02 0.02 0.02 0.02 0.03 0.04
0.03 0.03 0.03 0.02 0.02 0.01 0.01 0.01 0.01 0.01 0.01 0.02 0.02 0.02 0.02 0.01 0.00 0.00 0.01 0.01 0.01 0.01 0.01 0.01 0.01 0.01 0.01 0.01 0.01 0.01 0.01 0.01 0.01 0.02 0.01 0.01 0.01 0.03 0.04 0.04 0.04 0.04 0.04
0.04 0.04 0.03 0.02 0.02 0.02 0.01 0.01 0.01 0.02 0.02 0.02 0.02 0.02 0.03 0.01 0.00 0.00 0.00 0.01 0.01 0.01 0.02 0.01 0.01 0.01 0.01 0.01 0.00 0.01 0.01 0.01 0.02 0.02 0.02 0.02 0.03 0.05 0.05 0.04 0.04 0.06 0.05
0.04 0.05 0.05 0.03 0.02 0.02 0.02 0.01 0.01 0.00 0.01 0.01 0.01 0.02 0.02 0.01 0.01 0.00 0.00 0.01 0.01 0.01 0.03 0.03 0.02 0.02 0.02 0.01 0.01 0.01 0.01 0.01 0.03 0.03 0.03 0.02 0.03 0.04 0.06 0.05 0.05 0.05 0.04
0.03 0.04 0.06 0.04 0.03 0.02 0.02 0.02 0.01 0.00 0.00 0.01 0.01 0.01 0.02 0.01 0.01 0.01 0.01 0.01 0.01 0.01 0.02 0.02 0.02 0.02 0.02 0.02 0.01 0.02 0.01 0.01 0.02 0.03 0.03 0.02 0.03 0.04 0.06 0.08 0.07 0.06 0.04
0.03 0.04 0.05 0.06 0.04 0.03 0.02 0.02 0.01 0.01 0.01 0.01 0.00 0.01 0.01 0.01 0.01 0.01 0.01 0.01 0.01 0.01 0.02 0.02 0.02 0.03 0.04 0.03 0.03 0.02 0.02 0.02 0.02 0.03 0.04 0.03 0.03 0.04 0.05 0.07 0.06 0.05 0.04
MSLP
1012.25 1011.78 1011.43 1011.21 1011.11 1011.11 1011.15 1011.21 1011.25 1011.27 1011.26 1011.25 1011.27 1011.33 1011.46 1011.65 1011.90 1012.18 1012.47 1012.74 1012.97 1013.13 1013.23 1013.26 1013.25 1013.22 1013.19 1013.18 1013.21 1013.28 1013.37 1013.47 1013.57 1013.64 1013.68 1013.69 1013.68 1013.67 1013.66 1013.67 1013.69 1013.73 1013.75
1012.15 1011.72 1011.40 1011.22 1011.15 1011.18 1011.27 1011.36 1011.44 1011.48 1011.50 1011.51 1011.54 1011.63 1011.78 1012.00 1012.27 1012.57 1012.87 1013.14 1013.35 1013.50 1013.56 1013.57 1013.53 1013.47 1013.41 1013.38 1013.39 1013.43 1013.51 1013.61 1013.72 1013.81 1013.89 1013.94 1013.96 1013.96 1013.96 1013.96 1013.96 1013.98 1014.00
1011.98 1011.59 1011.31 1011.17 1011.15 1011.23 1011.36 1011.51 1011.63 1011.71 1011.76 1011.80 1011.87 1011.97 1012.14 1012.37 1012.64 1012.93 1013.21 1013.45 1013.63 1013.74 1013.78 1013.76 1013.71 1013.64 1013.57 1013.53 1013.52 1013.56 1013.64 1013.74 1013.87 1014.00 1014.11 1014.20 1014.26 1014.29 1014.30 1014.29 1014.29 1014.29 1014.31
1011.77 1011.43 1011.20 1011.11 1011.15 1011.28 1011.47 1011.66 1011.83 1011.95 1012.03 1012.10 1012.18 1012.30 1012.47 1012.69 1012.94 1013.20 1013.44 1013.64 1013.78 1013.87 1013.89 1013.87 1013.82 1013.76 1013.70 1013.67 1013.67 1013.70 1013.79 1013.90 1014.05 1014.20 1014.36 1014.49 1014.58 1014.64 1014.67 1014.66 1014.65 1014.64 1014.66
1011.60 1011.31 1011.13 1011.10 1011.20 1011.38 1011.61 1011.83 1012.02 1012.16 1012.26 1012.34 1012.43 1012.56 1012.72 1012.92 1013.15 1013.37 1013.57 1013.73 1013.85 1013.91 1013.94 1013.93 1013.91 1013.88 1013.86 1013.85 1013.86 1013.91 1013.99 1014.11 1014.26 1014.43 1014.61 1014.77 1014.90 1014.98 1015.02 1015.03 1015.01 1015.00 1015.01
1011.51 1011.28 1011.17 1011.19 1011.33 1011.55 1011.80 1012.03 1012.22 1012.35 1012.44 1012.52 1012.60 1012.72 1012.88 1013.06 1013.26 1013.45 1013.62 1013.76 1013.86 1013.93 1013.98 1014.01 1014.04 1014.06 1014.08 1014.11 1014.14 1014.18 1014.26 1014.36 1014.51 1014.68 1014.86 1015.03 1015.17 1015.27 1015.33 1015.34 1015.33 1015.32 1015.33
1011.55 1011.38 1011.33 1011.41 1011.59 1011.82 1012.06 1012.27 1012.42 1012.52 1012.58 1012.64 1012.71 1012.82 1012.97 1013.14 1013.32 1013.50 1013.65 1013.77 1013.87 1013.96 1014.05 1014.14 1014.23 1014.32 1014.39 1014.44 1014.49 1014.53 1014.58 1014.66 1014.77 1014.91 1015.08 1015.24 1015.38 1015.49 1015.55 1015.58 1015.58 1015.58 1015.60
1011.72 1011.61 1011.62 1011.75 1011.95 1012.17 1012.38 1012.54 1012.64 1012.68 1012.71 1012.74 1012.81 1012.91 1013.06 1013.23 1013.40 1013.56 1013.69 1013.81 1013.93 1014.04 1014.18 1014.32 1014.48 1014.62 1014.74 1014.83 1014.88 1014.91 1014.93 1014.96 1015.02 1015.12 1015.25 1015.40 1015.53 1015.63 1015.70 1015.73 1015.74 1015.76 1015.80
1011.96 1011.92 1012.00 1012.16 1012.37 1012.58 1012.75 1012.85 1012.88 1012.88 1012.87 1012.88 1012.94 1013.05 1013.20 1013.37 1013.54 1013.69 1013.81 1013.92 1014.04 1014.18 1014.34 1014.54 1014.75 1014.94 1015.11 1015.21 1015.27 1015.28 1015.26 1015.25 1015.26 1015.31 1015.40 1015.51 1015.62 1015.71 1015.78 1015.82 1015.84 1015.88 1015.93
1012.22 1012.26 1012.39 1012.59 1012.80 1012.99 1013.11 1013.16 1013.15 1013.11 1013.08 1013.09 1013.16 1013.29 1013.45 1013.63 1013.79 1013.92 1014.02 1014.11 1014.22 1014.35 1014.54 1014.76 1015.01 1015.24 1015.43 1015.56 1015.61 1015.61 1015.56 1015.51 1015.48 1015.48 1015.53 1015.60 1015.69 1015.78 1015.84 1015.88 1015.92 1015.97 1016.05
1012.45 1012.55 1012.73 1012.95 1013.16 1013.33 1013.42 1013.43 1013.40 1013.35 1013.33 1013.37 1013.47 1013.63 1013.81 1013.99 1014.13 1014.24 1014.31 1014.36 1014.44 1014.56 1014.74 1014.97 1015.23 1015.49 1015.70 1015.84 1015.90 1015.89 1015.83 1015.75 1015.69 1015.66 1015.68 1015.73 1015.80 1015.87 1015.93 1015.98 1016.02 1016.08 1016.17
1012.59 1012.74 1012.96 1013.20 1013.41 1013.55 1013.62 1013.63 1013.60 1013.58 1013.60 1013.68 1013.83 1014.02 1014.23 1014.41 1014.55 1014.62 1014.65 1014.66 1014.70 1014.79 1014.95 1015.17 1015.43 1015.70 1015.92 1016.08 1016.15 1016.15 1016.08 1016.00 1015.92 1015.89 1015.89 1015.93 1015.99 1016.05 1016.10 1016.15 1016.19 1016.25 1016.35
1012.63 1012.82 1013.06 1013.30 1013.50 1013.64 1013.70 1013.72 1013.73 1013.75 1013.83 1013.97 1014.18 1014.42 1014.65 1014.84 1014.96 1015.01 1015.01 1014.98 1014.98 1015.04 1015.17 1015.37 1015.63 1015.90 1016.14 1016.31 1016.40 1016.40 1016.36 1016.29 1016.22 1016.18 1016.19 1016.22 1016.28 1016.33 1016.38 1016.41 1016.45 1016.51 1016.60
1012.59 1012.79 1013.03 1013.25 1013.44 1013.57 1013.65 1013.70 1013.75 1013.83 1013.97 1014.19 1014.45 1014.73 1014.99 1015.20 1015.32 1015.36 1015.33 1015.29 1015.27 1015.31 1015.43 1015.62 1015.88 1016.15 1016.39 1016.57 1016.68 1016.71 1016.69 1016.64 1016.59 1016.57 1016.57 1016.61 1016.67 1016.72 1016.76 1016.79 1016.81 1016.86 1016.94
1012.47 1012.67 1012.89 1013.09 1013.27 1013.40 1013.50 1013.58 1013.67 1013.81 1014.01 1014.28 1014.59 1014.90 1015.19 1015.41 1015.55 1015.60 1015.59 1015.56 1015.55 1015.60 1015.73 1015.94 1016.19 1016.47 1016.72 1016.92 1017.04 1017.10 1017.10 1017.07 1017.04 1017.03 1017.04 1017.08 1017.13 1017.18 1017.21 1017.23 1017.24 1017.28 1017.34
1012.28 1012.47 1012.67 1012.86 1013.02 1013.16 1013.28 1013.39 1013.53 1013.71 1013.95 1014.24 1014.57 1014.90 1015.20 1015.44 1015.61 1015.70 1015.74 1015.77 1015.82 1015.92 1016.09 1016.32 1016.59 1016.88 1017.14 1017.35 1017.48 1017.56 1017.57 1017.56 1017.55 1017.54 1017.56 1017.59 1017.64 1017.67 1017.70 1017.71 1017.72 1017.74 1017.79
1012.03 1012.20 1012.39 1012.57 1012.75 1012.90 1013.04 1013.19 1013.36 1013.56 1013.81 1014.10 1014.42 1014.75 1015.05 1015.31 1015.51 1015.67 1015.79 1015.91 1016.05 1016.23 1016.46 1016.74 1017.04 1017.34 1017.61 1017.83 1017.97 1018.06 1018.09 1018.08 1018.07 1018.07 1018.08 1018.10 1018.13 1018.15 1018.17 1018.18 1018.18 1018.20 1018.24
1011.69 1011.86 1012.05 1012.25 1012.45 1012.65 1012.83 1013.02 1013.21 1013.42 1013.65 1013.91 1014.20 1014.48 1014.77 1015.04 1015.29 1015.52 1015.74 1015.96 1016.21 1016.49 1016.80 1017.14 1017.48 1017.80 1018.08 1018.30 1018.46 1018.55 1018.58 1018.59 1018.57 1018.56 1018.56 1018.56 1018.57 1018.58 1018.59 1018.60 1018.61 1018.63 1018.67
1011.23 1011.41 1011.64 1011.88 1012.14 1012.39 1012.64 1012.87 1013.09 1013.30 1013.51 1013.72 1013.95 1014.19 1014.44 1014.71 1014.99 1015.28 1015.60 1015.93 1016.29 1016.67 1017.06 1017.46 1017.83 1018.18 1018.47 1018.70 1018.87 1018.97 1019.02 1019.03 1019.02 1019.00 1018.97 1018.96 1018.95 1018.95 1018.94 1018.95 1018.97 1019.00 1019.05
1010.63 1010.84 1011.11 1011.42 1011.76 1012.11 1012.44 1012.74 1013.00 1013.21 1013.39 1013.56 1013.72 1013.90 1014.11 1014.36 1014.66 1015.01 1015.40 1015.82 1016.27 1016.73 1017.19 1017.63 1018.04 1018.41 1018.72 1018.97 1019.15 1019.28 1019.35 1019.38 1019.38 1019.35 1019.32 1019.29 1019.26 1019.24 1019.23 1019.23 1019.25 1019.30 1019.36
1009.89 1010.13 1010.46 1010.85 1011.29 1011.74 1012.17 1012.55 1012.87 1013.11 1013.29 1013.42 1013.53 1013.66 1013.83 1014.06 1014.36 1014.73 1015.16 1015.65 1016.15 1016.66 1017.16 1017.64 1018.07 1018.45 1018.78 1019.06 1019.28 1019.44 1019.56 1019.62 1019.64 1019.64 1019.60 1019.56 1019.51 1019.47 1019.44 1019.44 1019.46 1019.52 1019.59
1009.05 1009.32 1009.69 1010.15 1010.68 1011.24 1011.78 1012.26 1012.65 1012.94 1013.14 1013.26 1013.35 1013.45 1013.58 1013.79 1014.08 1014.46 1014.92 1015.42 1015.95 1016.48 1016.99 1017.47 1017.91 1018.31 1018.67 1018.98 1019.25 1019.48 1019.65 1019.76 1019.83 1019.84 1019.82 1019.77 1019.70 1019.64 1019.60 1019.59 1019.61 1019.66 1019.74
1008.21 1008.46 1008.84 1009.34 1009.93 1010.58 1011.21 1011.79 1012.27 1012.63 1012.88 1013.03 1013.13 1013.22 1013.35 1013.55 1013.84 1014.21 1014.66 1015.16 1015.68 1016.19 1016.69 1017.17 1017.61 1018.02 1018.41 1018.77 1019.10 1019.39 1019.63 1019.81 1019.93 1019.98 1019.97 1019.92 1019.85 1019.77 1019.71 1019.68 1019.69 1019.73 1019.80
1007.46 1007.65 1007.99 1008.48 1009.09 1009.77 1010.47 1011.12 1011.68 1012.12 1012.44 1012.65 1012.80 1012.92 1013.08 1013.29 1013.58 1013.95 1014.39 1014.87 1015.36 1015.85 1016.33 1016.78 1017.22 1017.64 1018.05 1018.46 1018.85 1019.22 1019.53 1019.78 1019.96 1020.05 1020.07 1020.03 1019.95 1019.86 1019.78 1019.72 1019.71 1019.73 1019.78
1006.92 1007.00 1007.25 1007.67 1008.23 1008.89 1009.60 1010.28 1010.89 1011.40 1011.79 1012.07 1012.29 1012.48 1012.69 1012.94 1013.26 1013.64 1014.08 1014.54 1015.02 1015.48 1015.93 1016.36 1016.79 1017.22 1017.66 1018.11 1018.55 1018.98 1019.36 1019.68 1019.91 1020.04 1020.09 1020.06 1019.99 1019.89 1019.79 1019.72 1019.69 1019.69 1019.72
1006.67 1006.61 1006.72 1007.01 1007.47 1008.04 1008.68 1009.34 1009.96 1010.50 1010.95 1011.30 1011.60 1011.87 1012.15 1012.47 1012.84 1013.25 1013.71 1014.17 1014.64 1015.09 1015.52 1015.94 1016.36 1016.80 1017.25 1017.73 1018.22 1018.69 1019.13 1019.49 1019.77 1019.95 1020.02 1020.02 1019.96 1019.86 1019.77 1019.69 1019.64 1019.63 1019.64
Thickness
5751 5755 5757 5758 5759 5760 5761 5762 5762 5763 5763 5764 5765 5765 5766 5766 5767 5767 5767 5768 5769 5769 5770 5770 5770 5770 5770 5770 5770 5770 5770 5770 5769 5769 5770 5769 5769 5769 5769 5769 5769 5769 5769
5752 5754 5755 5756 5757 5758 5759 5759 5760 5760 5760 5761 5762 5762 5763 5763 5763 5764 5765 5765 5765 5766 5767 5767 5767 5767 5767 5767 5767 5767 5767 5767 5767 5767 5767 5767 5767 5767 5766 5766 5766 5766 5766
5751 5752 5753 5754 5755 5756 5756 5756 5757 5757 5757 5758 5758 5759 5759 5760 5760 5761 5762 5762 5762 5763 5763 5763 5764 5764 5764 5764 5764 5764 5764 5764 5764 5764 5763 5763 5764 5764 5764 5763 5763 5764 5764
5750 5750 5751 5752 5753 5753 5753 5754 5754 5754 5754 5754 5755 5755 5756 5756 5757 5758 5758 5758 5759 5759 5760 5760 5760 5760 5761 5761 5761 5761 5761 5761 5761 5760 5760 5760 5761 5761 5761 5761 5761 5761 5761
5747 5748 5749 5749 5750 5750 5750 5750 5750 5750 5751 5751 5751 5752 5752 5753 5753 5754 5754 5755 5755 5755 5756 5756 5756 5757 5757 5758 5758 5758 5758 5757 5757 5757 5757 5757 5757 5758 5757 5757 5758 5758 5758
5745 5745 5746 5746 5747 5747 5747 5747 5747 5747 5747 5747 5748 5748 5749 5749 5749 5750 5750 5751 5751 5752 5752 5752 5752 5753 5753 5754 5754 5754 5754 5754 5753 5753 5753 5753 5754 5754 5754 5754 5754 5755 5755
5742 5742 5742 5743 5743 5743 5743 5743 5743 5743 5744 5744 5744 5744 5745 5745 5745 5746 5746 5747 5747 5748 5748 5748 5748 5749 5749 5750 5751 5751 5751 5750 5750 5750 5749 5750 5750 5750 5751 5751 5751 5751 5751
5739 5739 5739 5739 5739 5739 5739 5739 5740 5740 5740 5740 5740 5740 5741 5741 5741 5741 5742 5742 5743 5743 5744 5744 5745 5745 5745 5747 5748 5748 5747 5746 5746 5746 5745 5746 5746 5747 5747 5747 5747 5747 5748
5736 5735 5735 5735 5735 5735 5735 5735 5735 5736 5736 5736 5736 5736 5736 5736 5737 5737 5737 5738 5738 5739 5739 5740 5740 5741 5741 5743 5744 5745 5743 5741 5741 5741 5742 5742 5743 5743 5743 5743 5743 5743 5744
5731 5731 5731 5731 5731 5731 5731 5731 5731 5731 5731 5731 5731 5732 5732 5732 5732 5732 5733 5734 5734 5734 5734 5735 5736 5736 5737 5738 5739 5739 5738 5737 5736 5737 5737 5738 5739 5739 5739 5739 5739 5739 5740
5727 5727 5728 5728 5727 5727 5728 5727 5727 5727 5727 5727 5727 5727 5727 5727 5727 5727 5728 5729 5729 5729 5730 5730 5730 5731 5731 5732 5732 5732 5732 5731 5731 5732 5732 5733 5734 5735 5735 5735 5735 5736 5736
5722 5724 5724 5724 5724 5724 5724 5724 5723 5723 5723 5723 5722 5722 5722 5722 5722 5722 5723 5724 5724 5724 5724 5724 5725 5725 5725 5725 5726 5726 5726 5726 5726 5727 5727 5729 5730 5730 5730 5731 5731 5732 5732
5721 5722 5722 5722 5721 5721 5720 5720 5720 5719 5719 5719 5718 5718 5718 5718 5717 5717 5718 5718 5718 5719 5719 5719 5719 5719 5719 5719 5720 5720 5720 5720 5720 5721 5722 5723 5724 5725 5725 5726 5726 5727 5728
5719 5719 5720 5719 5718 5717 5717 5716 5716 5715 5715 5715 5714 5714 5714 5713 5712 5712 5712 5712 5713 5713 5713 5713 5712 5712 5713 5713 5713 5713 5714 5714 5714 5715 5716 5717 5718 5719 5719 5720 5721 5722 5723
5717 5717 5717 5717 5715 5714 5713 5712 5712 5711 5711 5710 5710 5710 5709 5708 5708 5707 5707 5707 5707 5707 5707 5707 5707 5707 5707 5707 5707 5707 5707 5707 5708 5708 5709 5711 5712 5713 5713 5714 5715 5717 5718
5715 5715 5715 5714 5713 5711 5710 5709 5708 5707 5707 5706 5706 5706 5705 5704 5703 5703 5702 5702 5702 5702 5702 5701 5701 5701 5700 5700 5700 5701 5701 5701 5702 5702 5703 5704 5705 5706 5707 5708 5710 5711 5712
5714 5714 5713 5713 5711 5709 5707 5706 5704 5704 5703 5702 5702 5702 5701 5701 5700 5699 5698 5697 5697 5697 5696 5696 5695 5695 5695 5694 5694 5694 5694 5695 5695 5696 5696 5697 5698 5699 5701 5702 5704 5705 5706
5713 5712 5711 5711 5708 5706 5704 5703 5701 5700 5700 5699 5699 5698 5698 5697 5696 5695 5694 5693 5692 5692 5691 5690 5689 5688 5687 5687 5686 5686 5687 5688 5689 5689 5689 5690 5691 5692 5693 5695 5697 5699 5700
5712 5710 5708 5707 5705 5703 5701 5700 5698 5697 5696 5695 5695 5694 5694 5693 5692 5691 5690 5688 5687 5687 5685 5685 5683 5682 5680 5680 5680 5680 5680 5681 5681 5682 5683 5683 5684 5685 5687 5688 5690 5691 5692
5709 5708 5706 5704 5702 5700 5698 5695 5694 5693 5692 5691 5691 5690 5690 5689 5688 5687 5685 5684 5683 5681 5680 5678 5676 5675 5674 5674 5675 5673 5673 5674 5675 5675 5676 5677 5678 5679 5680 5681 5683 5684 5685
5706 5704 5702 5700 5699 5696 5693 5691 5688 5687 5686 5687 5687 5687 5686 5685 5684 5683 5681 5679 5678 5676 5674 5673 5671 5669 5667 5667 5666 5665 5666 5667 5668 5668 5669 5670 5671 5672 5674 5675 5675 5676 5677
5703 5701 5699 5698 5696 5694 5692 5690 5687 5684 5683 5683 5683 5682 5682 5681 5680 5679 5677 5675 5673 5671 5669 5667 5666 5663 5662 5661 5659 5657 5655 5657 5660 5662 5662 5663 5664 5665 5666 5667 5668 5668 5669
5701 5700 5699 5696 5693 5691 5689 5686 5683 5680 5679 5677 5677 5677 5677 5677 5676 5675 5673 5671 5668 5667 5664 5663 5661 5659 5656 5654 5654 5652 5649 5647 5648 5652 5654 5656 5657 5657 5658 5660 5660 5661 5662
5700 5699 5697 5694 5691 5688 5686 5683 5680 5677 5674 5674 5673 5673 5673 5672 5672 5671 5669 5667 5665 5663 5660 5659 5657 5655 5653 5650 5648 5647 5646 5644 5642 5643 5646 5648 5649 5650 5650 5652 5652 5654 5655
5699 5696 5694 5691 5688 5685 5682 5680 5677 5674 5673 5671 5670 5669 5669 5668 5667 5666 5665 5663 5661 5659 5657 5655 5653 5651 5649 5646 5644 5642 5641 5639 5638 5637 5636 5639 5641 5642 5643 5644 5645 5646 5648
5695 5692 5690 5687 5684 5682 5679 5676 5674 5671 5669 5667 5665 5664 5664 5663 5662 5662 5661 5659 5657 5655 5653 5651 5649 5647 5645 5643 5641 5639 5638 5636 5633 5632 5631 5631 5632 5634 5637 5638 5639 5640 5641